Weather in Gavrilovka

Russia / Orenburg Oblast     51°56′05″N   56°09′07″E
temp.,
°C
wind,
m/s
gust,
m/s
humid.,
%
clouds,
%
prec.,
mm/h
press.,
hPa
HPBL,
m
16 may, sun
sun1623:00+21se22400 0.0 102211
02:00+18e11450 0.0 102211
05:00+17e11500 0.0 102311
08:00+21ese12480 0.0 1023116
11:00+26sse22380 0.0 1023611
14:00+30sse12240 0.0 10222788
17:00+30ssw12215 0.0 10213280
20:00+25e22394 0.0 102014
17 may, mon
mon1723:00+21ese114273 0.0 102111
02:00+19ese22441 0.0 102111
05:00+18e114664 0.0 102211
08:00+22ese22452 0.0 1022114
11:00+27s34355 0.0 1022610
14:00+30s24255 0.0 10213370
17:00+30se232320 0.0 10203374
20:00+26se124245 0.0 101911
18 may, tue
tue1823:00+19ene47525 0.0 1021121
02:00+18se11530 0.0 102011
05:00+17se115743 0.0 101911
08:00+20ne125259 0.0 1019128
11:00+26nne23390 0.0 1018596
14:00+30nne33241 0.0 10173122
17:00+30n33273 0.0 10163088
20:00+25nne345043 0.0 101663
19 may, wed
wed1923:00+21ne39536 0.0 1016150
02:00+18ne35635 0.0 101684
05:00+16ene497024 0.0 1017218
08:00+17e712670 0.0 1018492
11:00+21e79540 0.0 1019912
14:00+23e78430 0.0 10191346
17:00+23e78381 0.0 10191606
20:00+20ene49570 0.0 1019215
20 may, thu
thu2023:00+15ene413560 0.0 1020270
02:00+13e412530 0.0 1022235
05:00+12e411590 0.0 1022194
08:00+16ese510550 0.0 1023425
11:00+20se68430 0.0 10231209
14:00+23se67365 0.0 10221617
17:00+23se56340 0.0 10211735
20:00+20ese33520 0.0 102136